Temp
12 11 9 10 10 11 12 12 12 13 11 9 11 11 12 13 12 12 12 12 11 11 10 8 6 5 4 4 3 4 4 4 4 5 7 6 7 7 7 7 8 10 9 10
12 9 9 10 10 10 11 12 10 11 11 10 9 9 11 13 13 12 11 11 10 10 9 8 7 5 4 4 3 4 3 3 3 4 5 6 6 6 8 8 8 9 10 9
10 9 9 10 11 10 10 10 9 8 9 10 9 9 12 12 12 11 11 10 10 9 8 8 6 5 4 4 4 4 3 2 3 3 4 5 5 6 7 7 8 8 9 8
8 8 9 9 10 9 10 8 8 8 7 9 11 7 12 11 11 10 12 11 10 9 8 7 6 5 5 4 4 3 3 3 2 3 3 5 5 6 6 7 7 8 8 8
8 8 8 9 8 8 8 7 7 8 7 8 10 7 13 12 12 11 12 11 10 9 7 7 6 5 4 4 4 3 3 3 2 2 3 3 4 6 6 6 6 7 8 9
6 6 7 6 7 7 7 7 7 8 7 4 10 8 12 12 14 12 12 11 10 9 8 7 6 5 3 3 3 3 3 2 2 2 2 2 4 4 7 5 5 6 7 8
7 7 6 6 7 7 7 7 5 6 5 6 8 6 9 14 12 13 12 11 10 9 8 7 6 5 4 3 3 3 2 2 2 2 2 2 3 3 5 6 6 5 6 7
8 8 6 6 6 6 7 7 5 8 7 6 7 8 12 11 12 11 11 10 9 9 8 7 5 4 4 4 2 3 2 2 2 2 1 2 2 3 5 6 6 5 5 7
6 7 5 5 5 6 7 6 6 4 -1 3 9 11 14 12 12 11 11 10 10 9 8 7 5 4 4 4 3 2 2 2 2 2 1 2 2 3 3 4 5 5 5 6
5 7 3 4 5 5 5 6 6 3 6 6 8 10 9 11 11 11 10 10 10 9 8 6 5 4 4 4 3 2 3 2 2 2 2 2 2 2 3 3 4 4 5 5
3 6 4 4 3 5 4 4 6 6 5 5 5 8 11 14 14 12 11 10 9 8 7 6 5 4 4 4 4 2 3 2 3 3 2 2 2 2 3 3 3 4 5 6
5 6 6 5 3 4 4 7 7 5 5 3 4 5 9 8 9 10 11 10 8 8 8 7 6 5 4 3 3 3 2 2 3 3 3 2 2 2 1 2 2 3 4 6
5 5 6 6 4 3 3 5 7 5 4 4 4 7 8 9 9 10 9 9 8 8 8 8 7 6 4 3 3 3 3 2 2 3 3 3 2 1 1 1 1 1 3 5
6 2 5 8 9 5 3 3 5 5 2 5 5 6 8 5 4 8 10 10 9 9 9 9 8 6 5 5 3 3 3 2 3 3 3 3 3 2 2 1 1 1 2 3
5 3 2 2 5 6 5 3 3 3 5 7 6 4 8 3 3 10 10 10 9 10 10 9 9 8 7 5 4 3 3 3 3 3 3 3 3 2 2 2 2 1 2 3
5 4 1 2 1 2 2 4 3 4 3 3 5 5 9 10 10 9 7 7 7 10 10 10 9 9 8 6 5 4 4 3 4 3 3 3 3 3 2 3 2 3 3 4
3 4 4 7 1 -0 4 3 4 3 3 4 4 8 10 8 7 9 10 9 10 10 10 10 10 9 9 8 5 4 4 4 4 4 4 3 4 4 4 4 4 3 4 4
4 4 3 3 3 6 8 6 6 4 4 4 5 5 7 9 10 10 10 11 11 11 10 10 10 10 9 9 7 6 5 4 4 4 4 4 4 4 5 5 5 4 5 5
3 4 4 5 4 7 11 4 4 5 9 6 5 7 8 8 8 10 12 13 12 12 11 10 10 9 10 9 8 7 6 5 5 4 4 4 4 4 4 5 5 5 5 5
2 2 4 3 5 5 11 6 6 7 8 11 7 7 7 7 6 7 14 14 13 12 12 11 10 10 10 10 9 8 7 6 5 5 4 4 4 4 4 4 4 5 5 5
0 1 2 3 5 6 7 5 6 9 12 9 9 9 8 5 9 11 12 13 12 12 12 12 11 10 10 9 9 9 8 7 6 6 5 5 4 4 4 4 4 4 5 5
2 2 2 3 4 5 6 4 8 11 10 10 10 9 9 9 9 10 11 12 12 13 12 12 11 11 10 10 9 9 9 8 7 6 6 6 6 5 5 4 4 5 5 5
4 5 3 4 5 7 6 10 10 10 10 11 11 11 10 8 9 9 10 11 12 12 12 12 11 11 10 10 10 9 9 9 8 7 7 6 6 6 6 5 5 5 4 5
2 5 1 3 5 5 7 10 10 10 11 11 11 11 11 11 11 11 11 11 11 12 12 11 11 11 11 10 10 10 8 9 9 8 8 7 6 6 6 6 6 5 5 5
2 3 0 1 4 7 8 10 11 12 12 12 12 11 11 11 11 11 11 11 11 12 11 11 11 11 11 10 9 9 8 8 9 9 8 8 8 7 6 6 6 6 5 5
3 1 3 4 8 10 12 13 13 13 13 12 11 11 12 12 12 11 11 11 11 11 11 11 11 11 10 10 9 9 8 8 8 8 8 8 8 7 7 6 6 6 5 5
Height
1531 1535 1546 1543 1541 1539 1537 1535 1538 1531 1534 1537 1528 1523 1517 1514 1516 1516 1515 1515 1516 1515 1513 1512 1510 1509 1508 1505 1502 1499 1496 1493 1491 1489 1487 1487 1487 1487 1486 1487 1486 1484 1490 1496
1535 1545 1546 1545 1543 1543 1541 1536 1541 1536 1535 1538 1529 1523 1516 1512 1513 1514 1514 1515 1514 1513 1512 1511 1509 1507 1505 1503 1500 1496 1494 1491 1489 1487 1484 1483 1483 1484 1483 1484 1485 1480 1481 1491
1538 1547 1546 1545 1543 1545 1543 1544 1546 1549 1539 1530 1533 1521 1510 1509 1511 1512 1512 1513 1512 1511 1510 1510 1509 1507 1504 1501 1498 1495 1492 1490 1488 1486 1484 1482 1482 1482 1484 1484 1484 1483 1484 1492
1545 1548 1546 1546 1544 1548 1545 1551 1548 1545 1548 1545 1532 1547 1509 1508 1508 1508 1508 1510 1510 1508 1507 1507 1507 1506 1504 1500 1497 1494 1491 1489 1486 1484 1482 1481 1482 1482 1484 1486 1484 1484 1488 1492
1547 1548 1547 1546 1550 1550 1550 1552 1552 1547 1548 1547 1534 1548 1504 1505 1505 1506 1506 1507 1507 1506 1506 1506 1505 1503 1502 1500 1497 1494 1491 1488 1486 1484 1482 1481 1481 1481 1482 1485 1486 1486 1489 1492
1549 1551 1551 1552 1551 1551 1551 1550 1551 1547 1549 1569 1538 1547 1513 1505 1501 1503 1504 1505 1505 1505 1505 1504 1503 1503 1501 1499 1496 1493 1491 1488 1486 1484 1483 1482 1481 1479 1481 1486 1488 1488 1489 1492
1547 1550 1553 1553 1551 1551 1550 1551 1567 1561 1567 1562 1541 1551 1517 1497 1499 1502 1502 1503 1504 1504 1504 1503 1502 1502 1500 1498 1496 1493 1490 1488 1486 1484 1483 1482 1481 1481 1482 1484 1486 1487 1488 1491
1546 1549 1552 1555 1555 1554 1551 1554 1565 1564 1563 1558 1546 1541 1508 1499 1500 1502 1502 1502 1502 1502 1502 1501 1501 1500 1499 1497 1495 1493 1490 1488 1487 1484 1483 1483 1481 1480 1482 1482 1483 1486 1487 1490
1550 1549 1555 1556 1556 1557 1553 1556 1556 1569 1588 1576 1535 1514 1499 1500 1500 1503 1502 1501 1501 1502 1502 1500 1500 1498 1497 1496 1495 1492 1490 1488 1487 1485 1483 1483 1482 1481 1481 1482 1482 1484 1485 1488
1546 1549 1557 1556 1557 1558 1556 1556 1560 1568 1567 1566 1540 1526 1521 1503 1502 1502 1502 1502 1501 1501 1502 1500 1498 1497 1497 1496 1495 1492 1490 1489 1488 1486 1485 1483 1482 1481 1482 1482 1483 1485 1486 1487
1545 1547 1558 1558 1557 1553 1559 1560 1557 1557 1560 1569 1573 1535 1505 1499 1498 1500 1502 1504 1503 1500 1500 1499 1498 1496 1496 1495 1494 1493 1491 1489 1489 1488 1486 1485 1483 1482 1482 1483 1484 1485 1486 1487
1542 1544 1548 1549 1554 1554 1553 1549 1548 1562 1563 1569 1566 1543 1504 1504 1502 1502 1502 1503 1503 1501 1499 1498 1497 1495 1494 1494 1494 1492 1491 1489 1488 1488 1486 1485 1484 1484 1484 1484 1484 1484 1485 1487
1540 1546 1548 1546 1556 1557 1555 1549 1546 1552 1556 1560 1566 1531 1499 1500 1498 1500 1500 1501 1501 1500 1498 1497 1496 1495 1494 1493 1493 1493 1492 1491 1490 1489 1488 1486 1485 1484 1484 1483 1483 1483 1484 1486
1538 1549 1544 1537 1532 1540 1552 1549 1546 1549 1563 1547 1537 1521 1499 1499 1498 1494 1495 1495 1496 1497 1496 1495 1494 1495 1494 1493 1492 1492 1492 1492 1492 1492 1490 1489 1487 1485 1484 1485 1485 1483 1483 1486
1538 1548 1549 1543 1537 1536 1538 1542 1544 1548 1533 1531 1519 1522 1493 1496 1494 1490 1489 1490 1491 1493 1494 1493 1493 1494 1493 1493 1493 1491 1491 1492 1492 1492 1492 1491 1489 1488 1487 1486 1485 1486 1486 1488
1539 1542 1549 1547 1542 1542 1543 1535 1536 1533 1533 1530 1522 1508 1491 1484 1487 1485 1483 1484 1484 1487 1490 1491 1491 1491 1492 1493 1493 1492 1492 1492 1493 1493 1493 1492 1492 1491 1491 1489 1488 1488 1490 1492
1539 1540 1544 1529 1544 1548 1534 1521 1517 1520 1517 1515 1518 1485 1482 1483 1483 1480 1479 1480 1482 1485 1488 1490 1490 1490 1491 1492 1492 1492 1492 1493 1494 1494 1494 1494 1494 1493 1492 1492 1492 1492 1493 1494
1531 1537 1542 1544 1540 1533 1499 1497 1499 1503 1499 1497 1489 1479 1479 1480 1480 1478 1477 1477 1480 1483 1485 1488 1489 1490 1490 1491 1492 1492 1493 1494 1494 1495 1496 1496 1496 1495 1494 1494 1495 1497 1497 1497
1528 1529 1535 1533 1536 1512 1487 1497 1498 1498 1480 1476 1478 1470 1475 1478 1479 1472 1473 1475 1477 1480 1483 1486 1488 1489 1490 1490 1491 1492 1493 1494 1495 1495 1496 1496 1496 1497 1497 1498 1498 1498 1499 1501
1530 1529 1530 1540 1532 1527 1484 1487 1489 1490 1489 1466 1468 1467 1471 1475 1481 1469 1467 1470 1474 1477 1480 1483 1485 1487 1488 1489 1490 1491 1492 1494 1495 1495 1495 1495 1496 1496 1497 1498 1499 1500 1500 1500
1534 1535 1532 1529 1518 1506 1485 1484 1488 1494 1476 1465 1465 1464 1465 1469 1468 1467 1466 1467 1471 1474 1477 1480 1482 1485 1487 1488 1489 1490 1491 1493 1494 1496 1496 1496 1496 1496 1496 1497 1499 1500 1501 1502
1510 1518 1525 1524 1520 1507 1474 1486 1484 1468 1465 1465 1463 1463 1464 1464 1465 1467 1467 1467 1470 1473 1475 1478 1481 1483 1485 1487 1489 1490 1490 1491 1493 1494 1496 1497 1497 1497 1497 1496 1496 1497 1498 1499
1492 1480 1492 1489 1481 1465 1465 1461 1463 1465 1465 1464 1462 1462 1462 1464 1464 1466 1467 1468 1470 1472 1474 1477 1480 1482 1484 1486 1487 1488 1490 1489 1490 1492 1493 1495 1496 1496 1497 1497 1496 1496 1497 1497
1476 1472 1477 1477 1464 1460 1459 1461 1461 1462 1462 1462 1462 1461 1461 1462 1462 1463 1465 1466 1468 1470 1473 1476 1477 1479 1481 1483 1485 1486 1487 1488 1489 1489 1491 1492 1493 1494 1494 1494 1495 1496 1496 1497
1463 1465 1470 1468 1458 1457 1455 1454 1455 1458 1459 1458 1459 1460 1460 1460 1461 1461 1462 1463 1465 1467 1469 1472 1474 1477 1479 1481 1483 1484 1485 1485 1486 1487 1487 1488 1490 1491 1492 1493 1493 1494 1495 1495
1451 1454 1457 1453 1445 1445 1448 1450 1451 1451 1452 1454 1456 1456 1457 1456 1457 1458 1459 1461 1463 1464 1466 1468 1471 1473 1476 1477 1479 1480 1481 1482 1483 1483 1484 1485 1486 1487 1488 1489 1490 1491 1492 1491
Wind_Speed
4 5 5 5 6 6 4 1 6 5 5 5 7 9 8 4 2 8 9 8 9 9 10 14 10 13 12 12 13 17 16 15 16 15 10 6 6 8 8 11 6 22 28 34
0 5 4 3 4 5 7 4 5 3 3 3 8 14 12 7 4 3 5 8 10 10 8 6 9 12 13 13 13 17 16 14 14 14 12 8 7 3 7 8 10 9 23 27
4 3 1 3 1 6 2 3 3 4 8 8 8 7 7 6 6 7 6 5 7 6 8 8 9 11 13 13 14 15 14 12 12 12 9 6 3 4 4 6 9 10 15 20
5 1 1 1 2 4 3 6 5 5 6 3 4 5 6 8 8 8 7 4 4 6 6 6 8 10 13 13 13 13 11 12 11 9 8 4 3 2 4 7 3 9 12 12
1 1 1 1 3 3 2 5 6 4 4 4 2 1 4 6 6 7 7 3 5 7 7 6 8 13 12 12 12 12 11 11 11 9 7 4 1 2 4 8 5 7 11 12
4 2 3 3 1 1 4 3 6 2 1 3 1 2 4 4 3 4 7 5 4 5 8 7 10 11 10 12 12 12 11 9 10 8 6 4 2 4 3 5 3 7 14 13
1 3 3 2 2 3 3 2 3 5 4 4 3 2 9 3 5 3 3 2 3 5 5 6 7 8 12 12 9 10 10 10 8 7 6 3 2 2 3 7 3 6 8 9
2 3 1 3 3 1 3 1 3 4 2 5 4 5 5 5 6 2 4 4 6 6 4 7 6 9 10 10 10 8 8 8 8 6 6 4 3 2 4 5 5 3 7 11
3 1 2 3 3 2 2 0 2 4 2 2 4 6 3 1 2 4 5 3 4 4 5 7 7 8 8 8 7 8 7 8 7 8 7 6 5 4 2 5 7 6 5 15
2 2 1 3 1 0 1 1 2 2 2 4 5 5 5 3 5 6 5 5 1 4 6 6 7 7 8 6 6 5 6 7 7 8 7 7 6 4 3 3 6 9 7 7
3 2 0 1 4 4 2 1 2 1 1 4 2 6 4 2 2 3 3 1 3 6 4 6 6 6 6 6 5 5 6 7 6 7 7 7 7 6 4 2 4 6 9 10
3 2 3 4 2 3 2 2 4 3 3 1 2 7 2 5 6 3 3 4 6 8 6 6 5 5 5 5 6 5 3 6 7 7 8 8 8 6 4 2 1 5 8 11
5 1 2 2 1 2 3 4 4 4 2 6 5 6 3 4 4 8 10 9 8 10 9 6 4 4 3 6 4 4 4 4 5 7 7 8 8 8 7 5 2 2 7 10
4 2 4 4 2 4 3 4 7 5 3 3 7 8 12 8 6 12 13 14 12 13 10 7 4 4 3 4 4 3 3 4 5 6 8 8 9 10 10 9 7 5 7 8
4 3 2 4 5 3 3 4 9 9 7 8 4 8 14 5 6 19 28 21 18 18 11 7 4 3 3 2 2 2 3 6 6 6 7 9 10 11 11 12 13 12 10 9
2 2 2 5 2 2 5 7 10 15 5 12 13 25 14 32 19 16 13 17 15 11 11 9 5 2 1 1 1 3 5 6 5 5 6 8 9 10 12 13 14 14 14 13
6 4 2 4 1 0 7 11 13 5 6 8 8 14 3 5 9 14 6 6 9 11 10 10 6 3 2 1 3 6 9 9 5 3 4 5 7 9 13 12 13 14 14 15
7 6 2 4 2 2 6 4 5 12 8 18 12 14 7 9 10 11 9 8 10 11 12 10 8 5 4 3 4 7 9 7 4 3 3 4 5 7 9 11 12 11 11 12
6 5 3 2 3 7 6 5 7 8 8 17 20 20 15 15 15 28 17 16 13 11 10 10 10 8 6 5 5 6 6 5 4 2 2 3 4 5 6 7 7 9 10 9
2 4 2 3 4 6 4 2 3 2 5 2 19 14 8 12 4 4 0 12 17 14 10 11 13 11 9 7 6 6 6 5 3 2 2 1 2 4 6 5 5 6 7 7
4 1 7 6 5 6 10 10 10 3 4 1 3 14 15 7 11 2 2 7 16 16 12 12 12 11 9 8 8 7 6 5 5 4 3 2 2 4 5 6 6 6 5 6
10 10 5 4 5 8 13 7 8 3 1 3 6 3 12 20 6 13 3 6 11 12 11 11 12 12 12 10 9 8 5 7 6 6 6 5 4 4 5 6 7 8 9 8
5 8 8 12 9 3 23 11 11 11 3 2 6 9 4 11 14 11 9 10 10 10 10 10 11 12 12 11 10 9 7 8 7 7 7 7 7 6 6 6 6 7 8 12
3 8 3 4 7 16 18 22 28 19 12 11 10 10 8 7 6 12 11 13 13 12 11 11 13 13 13 13 12 9 11 11 10 9 10 10 10 9 8 8 8 8 8 9
6 13 7 5 8 14 20 21 23 21 22 22 19 17 16 14 13 10 15 15 16 15 14 14 13 13 13 14 14 14 14 15 14 13 13 13 12 13 12 11 11 10 10 11
9 7 6 7 16 14 19 18 16 14 18 17 17 14 12 11 13 13 14 16 17 18 17 17 15 14 13 15 16 17 18 19 19 19 18 16 16 16 16 16 15 15 14 14
Wind_Direction
7 60 54 39 13 357 345 28 283 333 80 332 277 297 290 104 280 265 264 282 289 286 273 295 293 307 314 318 318 319 330 330 330 336 324 289 277 273 304 306 294 195 209 202
27 76 59 11 5 336 309 307 14 299 59 317 293 296 283 176 221 262 304 306 310 305 297 278 290 296 308 321 316 322 332 330 334 345 337 328 322 336 299 303 276 125 159 174
79 83 94 321 311 353 97 346 33 291 312 248 276 271 189 181 207 212 242 272 284 297 276 269 278 288 301 312 323 330 339 337 341 349 340 331 309 26 329 277 243 222 138 174
77 107 313 323 48 28 323 14 317 307 7 310 28 292 217 167 203 194 196 205 289 289 286 283 278 277 298 317 328 336 347 347 347 355 346 331 262 346 13 288 235 136 190 203
192 133 57 354 50 357 63 346 312 328 321 353 234 295 246 149 235 162 147 216 258 281 286 285 278 282 308 324 334 338 343 347 345 356 358 341 309 272 352 294 254 143 174 198
90 72 15 35 334 327 332 267 233 241 318 12 1 61 269 172 130 136 156 178 247 271 293 290 284 308 313 322 331 338 342 340 343 1 5 359 327 333 255 272 229 161 202 205
174 113 113 346 255 191 238 307 326 358 13 227 85 8 253 138 150 169 136 221 267 281 299 284 287 284 289 313 331 343 348 354 354 1 360 6 359 3 290 267 232 195 159 184
133 306 46 350 43 8 27 353 145 225 285 275 102 239 256 87 103 177 221 243 272 296 285 304 289 282 296 320 330 351 352 3 7 3 5 22 13 331 241 249 232 199 173 196
124 250 124 44 9 16 294 326 13 96 48 36 247 276 283 77 213 182 208 217 279 293 298 296 290 296 300 318 330 336 1 6 8 13 13 33 24 328 258 219 220 228 195 191
216 32 351 101 248 70 333 192 68 356 29 315 301 290 250 281 254 188 216 218 27 321 325 311 308 291 306 324 337 341 356 17 17 21 21 22 28 13 349 270 214 219 211 197
135 111 353 1 197 160 148 191 226 52 87 170 296 277 318 16 140 196 144 14 313 313 316 303 303 293 306 324 347 348 3 16 51 32 27 35 37 32 31 323 265 234 209 195
168 150 201 214 81 18 326 286 194 137 244 297 144 273 309 0 24 350 302 301 310 326 317 317 319 303 316 333 345 7 6 55 46 41 42 42 39 39 48 7 250 214 212 200
174 224 340 329 146 18 230 192 222 101 44 204 154 259 172 231 276 271 273 276 289 308 295 307 320 318 315 306 328 11 27 73 68 35 40 54 52 53 52 51 42 207 194 189
118 135 204 202 153 117 183 212 195 159 143 208 226 283 276 268 260 266 262 263 268 308 266 277 294 299 291 302 316 6 70 99 66 51 58 50 57 61 61 63 69 80 133 153
144 211 180 267 233 206 225 183 187 198 213 195 260 228 256 246 237 272 283 267 268 287 248 253 265 289 297 305 331 358 91 115 89 63 54 49 64 69 70 74 77 78 92 113
179 233 109 285 66 156 260 233 208 222 245 267 278 281 270 271 269 283 283 264 260 233 235 237 237 236 310 315 16 123 132 127 102 87 80 69 59 75 82 84 88 94 98 103
159 146 152 265 152 283 286 224 202 179 212 191 208 245 251 254 262 281 265 229 214 223 233 236 232 216 136 97 115 131 137 141 133 98 47 64 73 76 91 84 90 102 112 108
156 143 103 267 5 228 240 160 177 200 229 211 254 257 222 251 274 268 253 231 218 221 230 233 233 221 190 161 137 145 149 152 147 126 89 99 99 86 95 103 110 112 116 124
348 131 187 217 226 308 312 200 169 176 278 217 226 254 246 244 270 274 255 245 233 220 223 236 238 228 211 194 182 173 173 175 173 152 108 100 118 126 116 124 123 127 137 148
51 54 157 146 215 230 264 168 175 127 287 202 207 240 210 159 226 247 159 231 219 219 224 233 231 225 218 208 202 203 199 203 204 200 177 121 122 140 152 155 145 150 146 157
136 114 206 218 245 279 265 160 145 112 247 246 242 244 197 186 211 347 283 215 208 218 227 220 217 221 224 220 219 212 218 209 219 230 248 224 185 181 170 178 183 184 176 165
164 165 178 192 227 270 189 114 189 206 101 39 37 333 227 219 225 242 262 175 180 188 198 206 210 214 221 223 229 230 225 229 234 239 244 252 256 244 217 198 195 194 199 209
214 187 181 189 202 227 189 210 233 251 303 337 10 3 329 242 240 254 233 202 192 195 202 207 213 216 222 224 229 235 227 245 244 247 252 254 255 254 254 250 230 214 215 212
260 189 193 98 229 240 235 241 249 252 274 277 285 306 308 310 276 237 234 220 214 215 218 218 223 229 230 234 232 226 230 247 250 252 257 264 265 262 264 265 263 258 246 239
177 152 162 266 282 270 267 259 265 258 264 269 271 274 289 281 280 279 247 236 227 225 225 229 237 245 248 245 247 243 239 247 252 254 259 265 270 273 271 270 269 265 258 255
190 176 179 214 207 211 244 260 260 271 274 267 263 276 302 286 287 275 268 253 242 239 241 238 242 250 256 258 255 250 251 252 255 257 258 263 267 270 273 273 271 272 268 267